SCP
0 0 0 0 0 0 0 0 0 0 0 0 0 0 0 0 0 0 0 0 0 0 0 0 0 0 0 0 0 0 0 0 0 0 0 0 0 0 0 0 0 0 0
0 0 0 0 0 0 0 0 0 0 0 0 0 0 0 0 0 0 0 0 0 0 0 0 0 0 0 0 0 0 0 0 0 0 0 0 0 0 0 0 0 0 0
0 0 0 0 0 0 0 0 0 0 0 0 0 0 0 0 0 0 0 0 0 0 0 0 0 0 0 0 0 0 0 0 0 0 0 0 0 0 0 0 0 0 0
0 0 0 0 0 0 0 0 0 0 0 0 0 0 0 0 0 0 0 0 0 0 0 0 0 0 0 0 0 0 0 0 0 0 0 0 0 0 0 0 0 0 0
0 0 0 0 0 0 0 0 0 0 0 0 0 0 0 0 0 0 0 0 0 0 0 0 0 0 0 0 0 0 0 0 0 0 0 0 0 0 0 0 0 0 0
0 0 0 0 0 0 0 0 0 0 0 0 0 0 0 0 0 0 0 0 0 0 0 0 0 0 0 0 0 0 0 0 0 0 0 0 0 0 0 0 0 0 0
0 0 0 0 0 0 0 0 0 0 0 0 0 0 0 0 0 0 0 0 0 0 0 0 0 0 0 0 0 0 0 0 0 0 0 0 0 0 0 0 0 0 0
0 0 0 0 0 0 0 0 0 0 0 0 0 0 0 0 0 0 0 0 0 0 0 0 0 0 0 0 0 0 0 0 0 0 0 0 0 0 0 0 0 0 0
0 0 0 0 0 0 0 0 0 0 0 0 0 0 0 0 0 0 0 0 0 0 0 0 0 0 0 0 0 0 0 0 0 0 0 0 0 0 0 0 0 0 0
0 0 0 0 0 0 0 0 0 0 0 0 0 0 0 0 0 0 0 0 0 0 0 0 0 0 0 0 0 0 0 0 0 0 0 0 0 0 0 0 0 0 0
0 0 0 0 0 0 0 0 0 0 0 0 0 0 0 0 0 0 0 0 0 0 0 0 0 0 0 0 0 0 0 0 0 0 0 0 0 0 0 0 0 0 0
0 0 0 0 0 0 0 0 0 0 0 0 0 0 0 0 0 0 0 0 0 0 0 0 0 0 0 0 0 0 0 0 0 0 0 0 0 0 0 0 0 0 0
0 0 0 0 0 0 0 0 0 0 0 0 0 0 0 0 0 0 0 0 0 0 0 0 0 0 0 0 0 0 0 0 0 0 0 0 0 0 0 0 0 0 0
0 0 0 0 0 0 0 0 0 0 0 0 0 0 0 0 0 0 0 0 0 0 0 0 0 0 0 0 0 0 0 0 0 0 0 0 0 0 0 0 0 0 0
0 0 0 0 0 0 0 0 0 0 0 0 0 0 0 0 0 0 0 0 0 0 0 0 0 0 0 0 0 0 0 0 0 0 0 0 0 0 0 0 0 0 0
0 0 0 0 0 0 0 0 0 0 0 0 0 0 0 0 0 0 0 0 0 0 0 0 0 0 0 0 0 0 0 0 0 0 0 0 0 0 0 0 0 0 0
0 0 0 0 0 0 0 0 0 0 0 0 0 0 0 0 0 0 0 0 0 0 0 0 0 0 0 0 0 0 0 0 0 0 0 0 0 0 0 0 0 0 0
0 0 0 0 0 0 0 0 0 0 0 0 0 0 0 0 0 0 0 0 0 0 0 0 0 0 0 0 0 0 0 0 0 0 0 0 0 0 0 0 0 0 0
0 0 0 0 0 0 0 0 0 0 0 0 0 0 0 0 0 0 0 0 0 0 0 0 0 0 0 0 0 0 0 0 0 0 0 0 0 0 0 0 0 0 0
0 0 0 0 0 0 0 0 0 0 0 0 0 0 0 0 0 0 0 0 0 0 0 0 0 0 0 0 0 0 0 0 0 0 0 0 0 0 0 0 0 0 0
0 0 0 0 0 0 0 0 0 0 0 0 0 0 0 0 0 0 0 0 0 0 0 0 0 0 0 0 0 0 0 0 0 0 0 0 0 0 0 0 0 0 0
0 0 0 0 0 0 0 0 0 0 0 0 0 0 0 0 0 0 0 0 0 0 0 0 0 0 0 0 0 0 0 0 0 0 0 0 0 0 0 0 0 0 0
0 0 0 0 0 0 0 0 0 0 0 0 0 0 0 0 0 0 0 0 0 0 0 0 0 0 0 0 0 0 0 0 0 0 0 0 0 0 0 0 0 0 0
0 0 0 0 0 0 0 0 0 0 0 0 0 0 0 0 0 0 0 0 0 0 0 0 0 0 0 0 0 0 0 0 0 0 0 0 0 0 0 0 0 0 0
0 0 0 0 0 0 0 0 0 0 0 0 0 0 0 0 0 0 0 0 0 0 0 0 0 0 0 0 0 0 0 0 0 0 0 0 0 0 0 0 0 0 0
0 0 0 0 0 0 0 0 0 0 0 0 0 0 0 0 0 0 0 0 0 0 0 0 0 0 0 0 0 0 0 0 0 0 0 0 0 0 0 0 0 0 0
Wind_Speed_500mb
4 2 3 6 10 14 18 23 29 32 36 38 41 44 47 49 50 51 52 54 55 56 60 62 65 65 67 65 65 64 64 63 78 85 79 76 78 78 76 77 78 80 81
3 4 4 3 4 6 8 10 13 15 18 20 25 30 34 37 41 45 49 52 54 56 55 57 58 56 58 61 63 64 63 64 67 82 80 80 80 78 77 79 77 78 80
3 2 2 3 5 5 5 5 7 8 12 14 19 22 25 29 33 36 39 40 41 42 43 47 48 52 56 58 59 60 62 63 69 77 84 85 86 83 82 83 86 83 82
5 3 1 3 5 7 8 9 11 13 16 18 22 24 27 31 34 37 39 42 45 48 50 53 55 58 61 63 64 64 66 70 74 79 86 89 91 90 86 90 92 86 84
11 9 6 4 4 5 7 9 13 15 17 20 23 27 30 34 38 41 46 50 54 55 57 59 62 63 63 64 67 69 70 74 75 79 85 87 92 93 91 89 90 85 82
12 8 7 5 5 6 8 10 12 15 18 20 23 25 28 31 35 39 44 47 51 55 57 59 61 63 62 62 63 65 67 71 77 76 84 87 90 89 89 87 82 77 80
10 7 5 5 7 10 14 17 20 23 25 28 31 33 35 38 40 42 46 48 51 51 55 57 59 60 61 62 62 62 64 63 65 68 77 83 87 84 85 88 83 78 74
6 2 5 9 13 17 21 25 28 31 34 36 38 39 40 42 44 46 48 51 53 54 54 55 58 58 56 59 65 69 68 66 63 65 68 75 73 76 79 81 81 77 68
2 8 14 19 22 26 29 32 35 38 40 42 44 46 48 46 50 52 55 56 57 57 56 56 56 56 56 59 64 70 72 72 67 65 66 68 66 59 57 60 64 66 68
11 15 19 23 27 30 33 36 38 42 44 47 47 49 51 53 52 55 57 61 63 63 60 59 58 57 58 59 62 66 73 74 69 65 66 65 61 59 52 55 54 59 58
15 19 23 27 30 33 37 42 45 48 51 53 55 53 54 54 54 54 57 60 63 66 65 64 61 60 62 61 62 64 68 66 62 60 63 63 57 51 43 41 43 49 54
18 21 25 29 34 37 40 42 44 48 51 54 56 58 55 54 53 54 58 58 60 63 66 66 65 63 64 62 60 62 62 56 59 58 55 55 49 42 42 37 37 44 49
21 25 28 31 33 36 39 43 46 50 54 56 58 61 62 60 59 56 56 54 56 63 63 62 62 60 60 57 54 56 53 50 49 48 49 45 45 41 34 35 37 38 43
23 24 25 28 30 35 39 43 46 49 54 57 59 63 65 66 64 61 56 60 60 62 62 65 61 55 54 51 47 45 43 43 42 43 44 40 44 44 40 37 38 37 40
20 22 24 28 32 35 38 42 45 47 53 58 60 62 64 66 61 56 52 58 60 63 66 69 65 57 56 51 47 44 38 36 37 37 35 35 33 38 36 34 32 33 35
17 19 22 26 31 37 42 43 45 49 50 53 56 57 57 60 61 58 57 57 60 60 60 55 57 57 58 48 45 42 38 35 32 32 30 31 31 30 30 33 35 35 35
16 19 25 31 36 41 45 51 57 48 50 54 55 54 51 54 53 52 53 55 55 52 49 49 48 57 58 48 43 40 37 34 32 33 29 28 24 29 28 28 32 31 33
19 23 29 33 38 42 47 51 55 59 64 60 52 53 53 50 48 49 52 51 51 46 43 42 35 36 35 40 42 39 36 36 33 31 28 25 24 24 24 26 26 28 28
22 28 34 36 38 42 46 49 53 55 57 59 59 55 54 44 42 45 47 47 48 47 44 40 39 41 40 39 39 37 34 31 30 28 25 23 22 21 21 23 23 25 25
27 33 36 37 39 42 45 48 51 54 56 56 55 56 56 53 47 45 43 41 40 41 41 39 37 35 35 34 34 34 31 29 30 29 27 24 22 20 22 23 23 24 24
30 32 33 34 36 39 42 46 49 52 53 53 51 50 47 51 47 45 44 43 42 40 40 39 36 34 33 32 31 30 29 28 27 26 24 24 26 25 26 24 24 22 24
31 31 30 32 35 38 41 44 47 48 48 49 48 45 44 43 42 41 42 42 41 41 40 39 37 36 35 35 33 31 30 29 29 28 28 28 28 27 25 24 24 22 21
31 29 29 31 35 37 39 43 44 44 44 44 45 44 41 39 38 38 37 37 36 34 33 33 32 30 30 30 29 28 27 26 25 25 25 25 25 26 27 27 26 24 22
27 28 28 30 32 34 37 38 39 40 40 40 41 41 40 38 36 35 34 34 33 33 32 31 30 29 29 28 27 27 26 23 23 24 24 24 25 25 25 24 24 25 26
26 28 28 28 30 33 35 35 35 36 37 38 38 39 39 39 38 36 35 35 34 34 34 34 33 33 32 32 32 31 31 30 30 30 31 31 30 30 29 29 29 29 28
27 28 28 29 31 33 34 35 36 38 39 41 41 42 43 43 42 42 41 40 39 39 39 38 38 38 38 37 37 36 36 34 34 31 27 27 26 25 24 24 23 23 23
Wind_Direction_500mb
127 150 253 263 263 265 263 258 253 252 254 258 260 263 265 269 267 271 274 277 280 281 283 284 284 285 287 287 287 286 284 283 282 292 292 293 292 292 292 290 287 285 284
335 330 326 320 313 303 294 292 285 278 273 272 272 275 275 275 276 277 279 279 280 282 285 286 290 289 286 285 285 286 285 284 284 287 292 292 292 292 291 290 290 287 285
250 296 324 360 11 15 1 348 321 307 297 294 289 285 285 284 283 282 280 280 280 280 280 280 282 283 284 286 287 286 286 285 284 286 289 290 290 290 289 289 290 289 287
183 186 225 341 319 312 313 314 311 309 307 305 299 297 295 293 293 291 289 290 290 291 291 290 290 290 292 291 288 285 284 285 286 286 287 289 290 290 288 289 289 290 289
136 121 105 80 39 1 332 318 313 311 308 305 303 303 304 303 300 297 294 295 295 294 292 290 290 290 291 289 288 289 288 286 286 287 287 288 287 289 289 291 289 290 289
129 121 101 73 39 9 355 347 340 335 333 330 327 324 320 315 312 309 306 304 303 302 301 300 298 296 294 291 289 288 286 286 286 286 287 286 289 289 291 290 290 288 285
135 115 78 33 3 350 345 340 334 329 326 323 320 318 316 314 313 311 310 309 308 307 305 304 301 300 299 297 293 289 286 286 284 286 285 285 288 289 289 288 288 287 287
129 70 335 318 314 314 313 313 314 313 313 313 314 315 315 316 315 315 314 313 312 312 310 309 307 308 307 302 299 295 293 289 287 285 282 285 284 284 281 283 286 288 284
254 296 298 302 306 309 311 311 310 310 311 311 312 313 313 315 314 313 312 310 308 308 308 308 309 310 309 306 300 299 298 296 294 290 287 286 285 282 278 280 277 276 276
275 292 303 309 312 313 314 314 315 316 315 315 316 316 315 315 314 311 309 307 307 306 306 305 306 308 310 309 303 300 297 297 297 294 290 288 288 286 280 266 271 273 271
292 303 308 312 315 316 317 317 318 317 317 317 316 318 318 317 314 310 306 305 304 303 303 304 304 306 307 307 305 299 296 297 296 296 297 298 298 295 290 281 273 268 268
299 309 313 315 316 316 318 320 323 322 321 321 320 319 319 317 315 312 307 303 301 301 304 303 302 304 306 307 305 301 296 290 287 291 294 299 302 301 309 305 295 282 276
304 307 310 313 316 320 321 322 323 324 324 324 322 320 319 318 317 313 308 308 307 309 310 307 304 305 306 308 304 301 296 292 291 292 298 301 302 303 306 305 302 293 278
293 302 309 314 317 317 320 322 324 324 321 321 320 317 316 316 316 315 310 310 313 313 314 313 312 313 313 313 310 305 299 296 294 294 299 295 297 301 302 303 301 293 284
298 305 310 313 317 320 323 325 324 324 321 319 318 316 315 313 314 312 305 303 304 305 305 302 306 309 311 311 309 307 303 301 300 302 299 300 297 295 303 305 304 294 284
295 304 313 316 320 322 321 319 320 319 317 316 316 317 316 312 311 304 304 301 301 303 302 297 295 297 301 306 305 305 302 301 303 304 300 303 301 292 298 301 298 295 292
294 306 313 315 318 318 318 319 318 317 315 315 314 313 311 309 309 309 303 302 305 307 306 303 291 293 297 303 302 299 298 298 302 306 303 299 290 293 295 296 294 294 291
293 303 308 312 315 317 318 318 317 317 317 317 315 312 310 311 311 308 309 309 307 307 302 292 288 284 286 293 298 300 300 296 296 295 298 300 298 290 292 297 298 298 296
292 299 303 308 311 313 314 315 317 316 316 316 316 313 313 314 308 306 311 312 314 315 313 307 297 289 287 289 289 290 293 296 301 300 299 300 302 299 293 294 298 297 294
288 294 299 306 311 314 317 317 317 316 316 315 316 314 314 315 313 310 309 310 310 313 315 314 309 304 300 298 296 295 292 288 284 284 285 286 293 297 295 298 299 298 297
284 289 296 304 308 310 312 314 315 315 315 315 315 314 312 314 316 314 311 310 309 309 309 309 309 307 306 305 304 302 298 295 293 293 292 290 288 288 285 291 292 288 293
279 284 293 299 304 309 313 315 316 316 316 315 315 314 312 311 311 309 308 308 308 308 308 308 308 308 307 306 304 304 303 303 303 303 301 300 297 297 296 293 285 284 287
275 282 291 299 306 310 314 316 315 315 315 315 315 316 318 317 315 314 313 312 312 312 312 313 313 313 313 313 312 311 310 310 312 311 310 307 305 303 301 297 293 289 282
272 280 289 297 304 311 313 313 314 314 314 315 316 317 318 319 319 318 318 317 317 317 317 317 317 317 316 315 314 313 313 313 314 314 315 315 314 311 307 305 302 297 292
271 280 289 298 306 309 308 308 309 310 311 312 312 312 313 313 313 313 312 312 312 312 312 313 312 312 311 311 311 311 311 313 314 313 310 306 303 301 299 297 293 290 286
273 282 290 297 299 300 300 302 304 305 306 306 307 306 306 306 306 305 305 304 303 303 304 305 305 305 305 305 304 303 304 306 305 308 308 309 311 311 310 308 304 299 294
Wind_Speed_850mb
4 2 3 6 10 14 18 23 29 32 36 38 41 44 47 49 50 51 52 54 55 56 60 62 65 65 67 65 65 64 64 63 78 85 79 76 78 78 76 77 78 80 81
3 4 4 3 4 6 8 10 13 15 18 20 25 30 34 37 41 45 49 52 54 56 55 57 58 56 58 61 63 64 63 64 67 82 80 80 80 78 77 79 77 78 80
3 2 2 3 5 5 5 5 7 8 12 14 19 22 25 29 33 36 39 40 41 42 43 47 48 52 56 58 59 60 62 63 69 77 84 85 86 83 82 83 86 83 82
5 3 1 3 5 7 8 9 11 13 16 18 22 24 27 31 34 37 39 42 45 48 50 53 55 58 61 63 64 64 66 70 74 79 86 89 91 90 86 90 92 86 84
11 9 6 4 4 5 7 9 13 15 17 20 23 27 30 34 38 41 46 50 54 55 57 59 62 63 63 64 67 69 70 74 75 79 85 87 92 93 91 89 90 85 82
12 8 7 5 5 6 8 10 12 15 18 20 23 25 28 31 35 39 44 47 51 55 57 59 61 63 62 62 63 65 67 71 77 76 84 87 90 89 89 87 82 77 80
10 7 5 5 7 10 14 17 20 23 25 28 31 33 35 38 40 42 46 48 51 51 55 57 59 60 61 62 62 62 64 63 65 68 77 83 87 84 85 88 83 78 74
6 2 5 9 13 17 21 25 28 31 34 36 38 39 40 42 44 46 48 51 53 54 54 55 58 58 56 59 65 69 68 66 63 65 68 75 73 76 79 81 81 77 68
2 8 14 19 22 26 29 32 35 38 40 42 44 46 48 46 50 52 55 56 57 57 56 56 56 56 56 59 64 70 72 72 67 65 66 68 66 59 57 60 64 66 68
11 15 19 23 27 30 33 36 38 42 44 47 47 49 51 53 52 55 57 61 63 63 60 59 58 57 58 59 62 66 73 74 69 65 66 65 61 59 52 55 54 59 58
15 19 23 27 30 33 37 42 45 48 51 53 55 53 54 54 54 54 57 60 63 66 65 64 61 60 62 61 62 64 68 66 62 60 63 63 57 51 43 41 43 49 54
18 21 25 29 34 37 40 42 44 48 51 54 56 58 55 54 53 54 58 58 60 63 66 66 65 63 64 62 60 62 62 56 59 58 55 55 49 42 42 37 37 44 49
21 25 28 31 33 36 39 43 46 50 54 56 58 61 62 60 59 56 56 54 56 63 63 62 62 60 60 57 54 56 53 50 49 48 49 45 45 41 34 35 37 38 43
23 24 25 28 30 35 39 43 46 49 54 57 59 63 65 66 64 61 56 60 60 62 62 65 61 55 54 51 47 45 43 43 42 43 44 40 44 44 40 37 38 37 40
20 22 24 28 32 35 38 42 45 47 53 58 60 62 64 66 61 56 52 58 60 63 66 69 65 57 56 51 47 44 38 36 37 37 35 35 33 38 36 34 32 33 35
17 19 22 26 31 37 42 43 45 49 50 53 56 57 57 60 61 58 57 57 60 60 60 55 57 57 58 48 45 42 38 35 32 32 30 31 31 30 30 33 35 35 35
16 19 25 31 36 41 45 51 57 48 50 54 55 54 51 54 53 52 53 55 55 52 49 49 48 57 58 48 43 40 37 34 32 33 29 28 24 29 28 28 32 31 33
19 23 29 33 38 42 47 51 55 59 64 60 52 53 53 50 48 49 52 51 51 46 43 42 35 36 35 40 42 39 36 36 33 31 28 25 24 24 24 26 26 28 28
22 28 34 36 38 42 46 49 53 55 57 59 59 55 54 44 42 45 47 47 48 47 44 40 39 41 40 39 39 37 34 31 30 28 25 23 22 21 21 23 23 25 25
27 33 36 37 39 42 45 48 51 54 56 56 55 56 56 53 47 45 43 41 40 41 41 39 37 35 35 34 34 34 31 29 30 29 27 24 22 20 22 23 23 24 24
30 32 33 34 36 39 42 46 49 52 53 53 51 50 47 51 47 45 44 43 42 40 40 39 36 34 33 32 31 30 29 28 27 26 24 24 26 25 26 24 24 22 24
31 31 30 32 35 38 41 44 47 48 48 49 48 45 44 43 42 41 42 42 41 41 40 39 37 36 35 35 33 31 30 29 29 28 28 28 28 27 25 24 24 22 21
31 29 29 31 35 37 39 43 44 44 44 44 45 44 41 39 38 38 37 37 36 34 33 33 32 30 30 30 29 28 27 26 25 25 25 25 25 26 27 27 26 24 22
27 28 28 30 32 34 37 38 39 40 40 40 41 41 40 38 36 35 34 34 33 33 32 31 30 29 29 28 27 27 26 23 23 24 24 24 25 25 25 24 24 25 26
26 28 28 28 30 33 35 35 35 36 37 38 38 39 39 39 38 36 35 35 34 34 34 34 33 33 32 32 32 31 31 30 30 30 31 31 30 30 29 29 29 29 28
27 28 28 29 31 33 34 35 36 38 39 41 41 42 43 43 42 42 41 40 39 39 39 38 38 38 38 37 37 36 36 34 34 31 27 27 26 25 24 24 23 23 23
Wind_Direction_850mb
127 150 253 263 263 265 263 258 253 252 254 258 260 263 265 269 267 271 274 277 280 281 283 284 284 285 287 287 287 286 284 283 282 292 292 293 292 292 292 290 287 285 284
335 330 326 320 313 303 294 292 285 278 273 272 272 275 275 275 276 277 279 279 280 282 285 286 290 289 286 285 285 286 285 284 284 287 292 292 292 292 291 290 290 287 285
250 296 324 360 11 15 1 348 321 307 297 294 289 285 285 284 283 282 280 280 280 280 280 280 282 283 284 286 287 286 286 285 284 286 289 290 290 290 289 289 290 289 287
183 186 225 341 319 312 313 314 311 309 307 305 299 297 295 293 293 291 289 290 290 291 291 290 290 290 292 291 288 285 284 285 286 286 287 289 290 290 288 289 289 290 289
136 121 105 80 39 1 332 318 313 311 308 305 303 303 304 303 300 297 294 295 295 294 292 290 290 290 291 289 288 289 288 286 286 287 287 288 287 289 289 291 289 290 289
129 121 101 73 39 9 355 347 340 335 333 330 327 324 320 315 312 309 306 304 303 302 301 300 298 296 294 291 289 288 286 286 286 286 287 286 289 289 291 290 290 288 285
135 115 78 33 3 350 345 340 334 329 326 323 320 318 316 314 313 311 310 309 308 307 305 304 301 300 299 297 293 289 286 286 284 286 285 285 288 289 289 288 288 287 287
129 70 335 318 314 314 313 313 314 313 313 313 314 315 315 316 315 315 314 313 312 312 310 309 307 308 307 302 299 295 293 289 287 285 282 285 284 284 281 283 286 288 284
254 296 298 302 306 309 311 311 310 310 311 311 312 313 313 315 314 313 312 310 308 308 308 308 309 310 309 306 300 299 298 296 294 290 287 286 285 282 278 280 277 276 276
275 292 303 309 312 313 314 314 315 316 315 315 316 316 315 315 314 311 309 307 307 306 306 305 306 308 310 309 303 300 297 297 297 294 290 288 288 286 280 266 271 273 271
292 303 308 312 315 316 317 317 318 317 317 317 316 318 318 317 314 310 306 305 304 303 303 304 304 306 307 307 305 299 296 297 296 296 297 298 298 295 290 281 273 268 268
299 309 313 315 316 316 318 320 323 322 321 321 320 319 319 317 315 312 307 303 301 301 304 303 302 304 306 307 305 301 296 290 287 291 294 299 302 301 309 305 295 282 276
304 307 310 313 316 320 321 322 323 324 324 324 322 320 319 318 317 313 308 308 307 309 310 307 304 305 306 308 304 301 296 292 291 292 298 301 302 303 306 305 302 293 278
293 302 309 314 317 317 320 322 324 324 321 321 320 317 316 316 316 315 310 310 313 313 314 313 312 313 313 313 310 305 299 296 294 294 299 295 297 301 302 303 301 293 284
298 305 310 313 317 320 323 325 324 324 321 319 318 316 315 313 314 312 305 303 304 305 305 302 306 309 311 311 309 307 303 301 300 302 299 300 297 295 303 305 304 294 284
295 304 313 316 320 322 321 319 320 319 317 316 316 317 316 312 311 304 304 301 301 303 302 297 295 297 301 306 305 305 302 301 303 304 300 303 301 292 298 301 298 295 292
294 306 313 315 318 318 318 319 318 317 315 315 314 313 311 309 309 309 303 302 305 307 306 303 291 293 297 303 302 299 298 298 302 306 303 299 290 293 295 296 294 294 291
293 303 308 312 315 317 318 318 317 317 317 317 315 312 310 311 311 308 309 309 307 307 302 292 288 284 286 293 298 300 300 296 296 295 298 300 298 290 292 297 298 298 296
292 299 303 308 311 313 314 315 317 316 316 316 316 313 313 314 308 306 311 312 314 315 313 307 297 289 287 289 289 290 293 296 301 300 299 300 302 299 293 294 298 297 294
288 294 299 306 311 314 317 317 317 316 316 315 316 314 314 315 313 310 309 310 310 313 315 314 309 304 300 298 296 295 292 288 284 284 285 286 293 297 295 298 299 298 297
284 289 296 304 308 310 312 314 315 315 315 315 315 314 312 314 316 314 311 310 309 309 309 309 309 307 306 305 304 302 298 295 293 293 292 290 288 288 285 291 292 288 293
279 284 293 299 304 309 313 315 316 316 316 315 315 314 312 311 311 309 308 308 308 308 308 308 308 308 307 306 304 304 303 303 303 303 301 300 297 297 296 293 285 284 287
275 282 291 299 306 310 314 316 315 315 315 315 315 316 318 317 315 314 313 312 312 312 312 313 313 313 313 313 312 311 310 310 312 311 310 307 305 303 301 297 293 289 282
272 280 289 297 304 311 313 313 314 314 314 315 316 317 318 319 319 318 318 317 317 317 317 317 317 317 316 315 314 313 313 313 314 314 315 315 314 311 307 305 302 297 292
271 280 289 298 306 309 308 308 309 310 311 312 312 312 313 313 313 313 312 312 312 312 312 313 312 312 311 311 311 311 311 313 314 313 310 306 303 301 299 297 293 290 286
273 282 290 297 299 300 300 302 304 305 306 306 307 306 306 306 306 305 305 304 303 303 304 305 305 305 305 305 304 303 304 306 305 308 308 309 311 311 310 308 304 299 294